TimeCDT,TemperatureF,Dew PointF,Humidity,Sea Level PressureIn,VisibilityMPH,Wind Direction,Wind SpeedMPH,Gust SpeedMPH,PrecipitationIn,Events,Conditions,WindDirDegrees,DateUTC
12:53 AM,52.0,36.0,54,30.11,10.0,West,10.4,-,N/A,,Clear,270,2013-10-06 05:53:00
1:53 AM,51.1,35.1,54,30.13,10.0,NW,11.5,-,N/A,,Clear,320,2013-10-06 06:53:00
2:53 AM,51.1,32.0,48,30.12,10.0,NW,11.5,-,N/A,,Clear,310,2013-10-06 07:53:00
3:53 AM,51.1,28.0,41,30.10,10.0,NW,16.1,23.0,N/A,,Clear,310,2013-10-06 08:53:00
4:53 AM,50.0,26.1,39,30.11,10.0,NW,12.7,-,N/A,,Clear,320,2013-10-06 09:53:00
5:53 AM,48.9,26.1,41,30.13,10.0,NW,16.1,-,N/A,,Clear,320,2013-10-06 10:53:00
6:53 AM,48.9,27.0,43,30.15,10.0,NW,11.5,-,N/A,,Clear,320,2013-10-06 11:53:00
7:53 AM,51.1,26.1,38,30.15,10.0,NNW,19.6,29.9,N/A,,Clear,340,2013-10-06 12:53:00
8:53 AM,54.0,26.1,34,30.17,10.0,NNW,18.4,-,N/A,,Clear,330,2013-10-06 13:53:00
9:53 AM,57.0,27.0,32,30.18,10.0,NW,20.7,29.9,N/A,,Clear,320,2013-10-06 14:53:00
10:53 AM,61.0,24.1,24,30.17,10.0,NNW,21.9,29.9,N/A,,Clear,340,2013-10-06 15:53:00
11:53 AM,64.0,27.0,25,30.17,10.0,North,23.0,31.1,N/A,,Clear,350,2013-10-06 16:53:00
12:53 PM,66.9,28.0,23,30.15,10.0,NNW,21.9,27.6,N/A,,Clear,340,2013-10-06 17:53:00
1:53 PM,69.1,30.0,23,30.12,10.0,NNW,16.1,26.5,N/A,,Clear,330,2013-10-06 18:53:00
2:53 PM,73.0,32.0,22,30.09,10.0,NNW,16.1,23.0,N/A,,Clear,340,2013-10-06 19:53:00
3:53 PM,75.0,30.0,19,30.06,10.0,NNW,21.9,32.2,N/A,,Clear,330,2013-10-06 20:53:00
4:53 PM,75.9,30.0,19,30.05,10.0,NNW,17.3,24.2,N/A,,Clear,340,2013-10-06 21:53:00
5:53 PM,73.9,32.0,21,30.06,10.0,NNW,12.7,23.0,N/A,,Clear,330,2013-10-06 22:53:00
6:53 PM,71.1,35.1,27,30.06,10.0,NNW,11.5,-,N/A,,Clear,340,2013-10-06 23:53:00
7:53 PM,63.0,39.0,41,30.08,10.0,WNW,4.6,-,N/A,,Clear,300,2013-10-07 00:53:00
8:53 PM,63.0,37.0,38,30.09,10.0,NW,4.6,-,N/A,,Clear,310,2013-10-07 01:53:00
9:53 PM,61.0,41.0,48,30.10,10.0,West,3.5,-,N/A,,Clear,270,2013-10-07 02:53:00
10:53 PM,57.0,43.0,59,30.11,10.0,West,4.6,-,N/A,,Clear,280,2013-10-07 03:53:00
11:53 PM,55.9,43.0,62,30.12,10.0,WNW,4.6,-,N/A,,Clear,290,2013-10-07 04:53:00